| time (UTC) | temp F | wind direction | speed knots | gust knots | rain 1hr in | rain 24hr in | rain mn in | humidity % | barometer mb |
| 20260503050514 | 45 | 124 | 0.0 | 1.7 | 0.00 | 0.06 | 0.06 | 90 | 1022.7 |
| 20260503050012 | 46 | 158 | 0.9 | 1.7 | 0.00 | 0.06 | 0.06 | 90 | 1022.5 |
| 20260503045509 | 46 | 269 | 0.0 | 1.7 | 0.00 | 0.06 | 0.06 | 90 | 1022.7 |
| 20260503045006 | 46 | 129 | 0.0 | 1.7 | 0.00 | 0.06 | 0.06 | 90 | 1022.7 |
| 20260503044503 | 46 | 214 | 0.0 | 1.7 | 0.00 | 0.06 | 0.06 | 89 | 1022.5 |
| 20260503044001 | 46 | 201 | 0.0 | 2.6 | 0.00 | 0.06 | 0.06 | 89 | 1022.9 |
| 20260503043456 | 46 | 241 | 2.6 | 4.3 | 0.00 | 0.06 | 0.06 | 90 | 1022.6 |
| 20260503042953 | 46 | 241 | 2.6 | 3.5 | 0.00 | 0.06 | 0.06 | 90 | 1022.6 |
| 20260503042450 | 46 | 208 | 0.0 | 0.9 | 0.00 | 0.06 | 0.06 | 88 | 1022.4 |
| 20260503041946 | 46 | 163 | 0.9 | 2.6 | 0.00 | 0.06 | 0.06 | 90 | 1022.4 |
| 20260503041443 | 46 | 137 | 1.7 | 2.6 | 0.00 | 0.06 | 0.06 | 90 | 1022.5 |
| 20260503040941 | 46 | 180 | 2.6 | 4.3 | 0.00 | 0.06 | 0.06 | 90 | 1022.1 |
| 20260503040438 | 47 | 147 | 0.0 | 2.6 | 0.00 | 0.06 | 0.06 | 89 | 1022.1 |
| 20260503035935 | 47 | 215 | 0.9 | 3.5 | 0.02 | 0.06 | 0.06 | 86 | 1022.1 |
| 20260503035432 | 47 | 220 | 0.0 | 2.6 | 0.02 | 0.06 | 0.06 | 88 | 1022.0 |
| 20260503034930 | 48 | 50 | 0.0 | 2.6 | 0.00 | 0.05 | 0.05 | 85 | 1022.3 |
| 20260503034427 | 46 | 254 | 2.6 | 3.5 | 0.00 | 0.05 | 0.05 | 88 | 1022.0 |
| 20260503033924 | 47 | 356 | 0.0 | 3.5 | 0.00 | 0.05 | 0.05 | 87 | 1022.0 |
| 20260503033421 | 46 | 135 | 1.7 | 2.6 | 0.00 | 0.05 | 0.05 | 88 | 1022.3 |
| 20260503032919 | 46 | 196 | 0.9 | 5.2 | 0.00 | 0.05 | 0.05 | 89 | 1022.3 |
| 20260503032418 | 46 | 287 | 2.6 | 6.1 | 0.02 | 0.05 | 0.05 | 91 | 1022.3 |
| 20260503031915 | 46 | 126 | 0.0 | 2.6 | 0.02 | 0.05 | 0.05 | 92 | 1022.0 |
| 20260503031412 | 46 | 201 | 0.0 | 1.7 | 0.05 | 0.05 | 0.05 | 90 | 1022.1 |
| 20260503030909 | 46 | 111 | 0.0 | 3.5 | 0.09 | 0.05 | 0.05 | 89 | 1022.0 |
| 20260503030405 | 47 | 69 | 1.7 | 2.6 | 0.07 | 0.04 | 0.04 | 87 | 1022.3 |
| 20260503025902 | 48 | 203 | 0.9 | 2.6 | 0.05 | 0.03 | 0.03 | 82 | 1022.5 |
| 20260503025359 | 49 | 110 | 0.0 | 3.5 | 0.00 | 0.02 | 0.02 | 79 | 1022.4 |
| 20260503024856 | 49 | 241 | 0.0 | 3.5 | 0.00 | 0.02 | 0.02 | 75 | 1022.3 |
| 20260503024353 | 50 | 235 | 1.7 | 2.6 | 0.00 | 0.02 | 0.02 | 75 | 1021.9 |
| 20260503023850 | 50 | 183 | 0.9 | 2.6 | 0.00 | 0.02 | 0.02 | 74 | 1021.8 |
| 20260503023347 | 50 | 194 | 2.6 | 5.2 | 0.00 | 0.02 | 0.02 | 72 | 1021.5 |
| 20260503022843 | 50 | 181 | 1.7 | 3.5 | 0.00 | 0.02 | 0.02 | 72 | 1021.5 |
| 20260503022338 | 50 | 297 | 0.9 | 5.2 | 0.00 | 0.02 | 0.02 | 71 | 1021.3 |
| 20260503021835 | 51 | 304 | 2.6 | 6.1 | 0.00 | 0.02 | 0.02 | 71 | 1021.2 |
| 20260503021331 | 51 | 278 | 0.0 | 4.3 | 0.00 | 0.02 | 0.02 | 71 | 1021.3 |
| 20260503020828 | 51 | 335 | 0.9 | 3.5 | 0.00 | 0.02 | 0.02 | 72 | 1021.2 |
| 20260503020327 | 51 | 290 | 2.6 | 4.3 | 0.00 | 0.02 | 0.02 | 71 | 1021.2 |
| 20260503015822 | 52 | 302 | 2.6 | 6.1 | 0.00 | 0.02 | 0.02 | 69 | 1021.2 |
| 20260503015320 | 52 | 275 | 1.7 | 5.2 | 0.00 | 0.02 | 0.02 | 68 | 1021.0 |
| 20260503014815 | 52 | 321 | 1.7 | 4.3 | 0.00 | 0.02 | 0.02 | 67 | 1021.4 |
| 20260503014313 | 54 | 300 | 3.5 | 6.1 | 0.00 | 0.02 | 0.02 | 64 | 1021.3 |
| 20260503013810 | 54 | 310 | 1.7 | 3.5 | 0.00 | 0.02 | 0.02 | 61 | 1021.0 |
| 20260503013308 | 54 | 138 | 0.0 | 1.7 | 0.00 | 0.02 | 0.02 | 65 | 1021.2 |
| 20260503012805 | 54 | 89 | 0.0 | 1.7 | 0.00 | 0.02 | 0.02 | 62 | 1021.2 |
| 20260503012305 | 55 | 88 | 1.7 | 2.6 | 0.00 | 0.02 | 0.02 | 64 | 1021.4 |
| 20260503011759 | 55 | 0 | 0.0 | 1.7 | 0.00 | 0.02 | 0.02 | 59 | 1021.5 |
| 20260503011255 | 54 | 131 | 2.6 | 5.2 | 0.00 | 0.02 | 0.02 | 61 | 1021.2 |
| 20260503010752 | 54 | 64 | 2.6 | 4.3 | 0.00 | 0.02 | 0.02 | 64 | 1021.5 |
| 20260503010249 | 53 | 99 | 1.7 | 5.2 | 0.00 | 0.02 | 0.02 | 67 | 1021.3 |
| 20260503005746 | 53 | 120 | 1.7 | 6.1 | 0.00 | 0.02 | 0.02 | 68 | 1021.5 |
| 20260503005244 | 52 | 110 | 1.7 | 4.3 | 0.00 | 0.02 | 0.02 | 71 | 1021.4 |
| 20260503004739 | 51 | 114 | 2.6 | 7.0 | 0.00 | 0.02 | 0.02 | 71 | 1021.5 |
| 20260503004238 | 51 | 49 | 6.1 | 9.6 | 0.02 | 0.02 | 0.02 | 72 | 1021.4 |
| 20260503003735 | 50 | 111 | 1.7 | 5.2 | 0.02 | 0.02 | 0.02 | 74 | 1021.4 |
| 20260503003232 | 50 | 194 | 1.7 | 7.8 | 0.02 | 0.02 | 0.02 | 74 | 1021.7 |
| 20260503002728 | 51 | 87 | 4.3 | 11.3 | 0.02 | 0.02 | 0.02 | 73 | 1021.7 |
| 20260503002225 | 51 | 113 | 1.7 | 4.3 | 0.02 | 0.02 | 0.02 | 75 | 1021.5 |
| 20260503001721 | 51 | 130 | 2.6 | 6.1 | 0.05 | 0.02 | 0.02 | 71 | 1022.1 |
| 20260503001218 | 51 | 127 | 0.9 | 5.2 | 0.05 | 0.01 | 0.01 | 70 | 1021.7 |
| 20260503000716 | 52 | 189 | 0.9 | 4.3 | 0.05 | 0.01 | 0.01 | 72 | 1021.4 |
| 20260503000213 | 56 | 118 | 1.7 | 6.1 | 0.00 | 0.00 | 0.00 | 53 | 1021.4 |
| 20260502235710 | 58 | 64 | 3.5 | 7.8 | 0.00 | 0.00 | 0.00 | 45 | 1021.3 |
| 20260502235208 | 58 | 84 | 0.9 | 6.1 | 0.00 | 0.00 | 0.00 | 43 | 1020.9 |
| 20260502234704 | 58 | 212 | 1.7 | 2.6 | 0.00 | 0.00 | 0.00 | 42 | 1020.7 |
| 20260502234201 | 58 | 140 | 1.7 | 9.6 | 0.00 | 0.00 | 0.00 | 42 | 1020.7 |
| 20260502233657 | 58 | 87 | 3.5 | 13.0 | 0.00 | 0.00 | 0.00 | 41 | 1020.8 |
| 20260502233154 | 59 | 235 | 4.3 | 7.8 | 0.00 | 0.00 | 0.00 | 40 | 1020.9 |
| 20260502232649 | 58 | 117 | 0.9 | 9.6 | 0.00 | 0.00 | 0.00 | 44 | 1020.9 |
| 20260502232147 | 57 | 236 | 2.6 | 6.1 | 0.00 | 0.00 | 0.00 | 44 | 1021.2 |
| 20260502231643 | 57 | 191 | 2.6 | 5.2 | 0.00 | 0.00 | 0.00 | 46 | 1021.2 |
| 20260502231141 | 57 | 191 | 3.5 | 13.0 | 0.00 | 0.00 | 0.00 | 47 | 1021.3 |
| 20260502230640 | 58 | 209 | 7.0 | 16.5 | 0.00 | 0.00 | 0.00 | 42 | 1021.4 |
| 20260502230138 | 60 | 102 | 4.3 | 15.6 | 0.00 | 0.00 | 0.00 | 38 | 1021.3 |
| 20260502225633 | 61 | 95 | 1.7 | 7.0 | 0.00 | 0.00 | 0.00 | 38 | 1021.3 |
| 20260502225131 | 62 | 309 | 0.0 | 5.2 | 0.00 | 0.00 | 0.00 | 37 | 1021.0 |
| 20260502224627 | 62 | 241 | 5.2 | 7.0 | 0.00 | 0.00 | 0.00 | 37 | 1020.9 |
| 20260502224123 | 62 | 273 | 3.5 | 11.3 | 0.00 | 0.00 | 0.00 | 37 | 1021.0 |
| 20260502223621 | 63 | 266 | 7.0 | 9.6 | 0.00 | 0.00 | 0.00 | 36 | 1021.2 |
| 20260502223120 | 64 | 273 | 4.3 | 9.6 | 0.00 | 0.00 | 0.00 | 34 | 1021.2 |
| 20260502222617 | 65 | 188 | 1.7 | 6.1 | 0.00 | 0.00 | 0.00 | 34 | 1020.9 |
| 20260502222113 | 63 | 282 | 5.2 | 8.7 | 0.00 | 0.00 | 0.00 | 35 | 1021.3 |
| 20260502221609 | 63 | 266 | 2.6 | 5.2 | 0.00 | 0.00 | 0.00 | 35 | 1021.4 |
| 20260502221106 | 62 | 170 | 1.7 | 5.2 | 0.00 | 0.00 | 0.00 | 37 | 1021.7 |
| 20260502220602 | 62 | 265 | 2.6 | 7.8 | 0.00 | 0.00 | 0.00 | 37 | 1021.8 |
| 20260502220058 | 62 | 272 | 3.5 | 8.7 | 0.00 | 0.00 | 0.00 | 37 | 1021.5 |
| 20260502215556 | 62 | 279 | 2.6 | 5.2 | 0.00 | 0.00 | 0.00 | 37 | 1021.7 |
| 20260502215052 | 62 | 49 | 1.7 | 7.0 | 0.00 | 0.00 | 0.00 | 36 | 1021.9 |
| 20260502214549 | 62 | 279 | 1.7 | 5.2 | 0.00 | 0.00 | 0.00 | 36 | 1021.8 |
| 20260502214047 | 62 | 294 | 2.6 | 7.0 | 0.00 | 0.00 | 0.00 | 35 | 1022.0 |
| 20260502213544 | 63 | 274 | 6.1 | 10.4 | 0.00 | 0.00 | 0.00 | 35 | 1021.9 |
| 20260502213042 | 62 | 116 | 2.6 | 6.1 | 0.00 | 0.00 | 0.00 | 36 | 1021.9 |
| 20260502212540 | 62 | 261 | 3.5 | 7.0 | 0.00 | 0.00 | 0.00 | 36 | 1022.1 |
| 20260502212038 | 62 | 245 | 2.6 | 7.8 | 0.00 | 0.00 | 0.00 | 36 | 1022.3 |
| 20260502211533 | 62 | 288 | 5.2 | 7.0 | 0.00 | 0.00 | 0.00 | 35 | 1022.0 |
| 20260502211030 | 63 | 7 | 2.6 | 6.1 | 0.00 | 0.00 | 0.00 | 36 | 1022.3 |
| 20260502210527 | 62 | 258 | 2.6 | 4.3 | 0.00 | 0.00 | 0.00 | 36 | 1022.1 |
| 20260502210024 | 63 | 263 | 3.5 | 7.8 | 0.00 | 0.00 | 0.00 | 35 | 1022.1 |
| 20260502205521 | 63 | 145 | 2.6 | 7.0 | 0.00 | 0.00 | 0.00 | 34 | 1022.3 |
| 20260502205018 | 63 | 257 | 2.6 | 6.1 | 0.00 | 0.00 | 0.00 | 34 | 1022.4 |
| 20260502204515 | 64 | 274 | 5.2 | 8.7 | 0.00 | 0.00 | 0.00 | 33 | 1022.3 |
| 20260502204013 | 65 | 130 | 2.6 | 7.0 | 0.00 | 0.00 | 0.00 | 32 | 1022.1 |
| 20260502203509 | 65 | 245 | 6.1 | 7.0 | 0.00 | 0.00 | 0.00 | 33 | 1022.1 |
| 20260502203006 | 65 | 271 | 5.2 | 10.4 | 0.00 | 0.00 | 0.00 | 33 | 1022.1 |
| 20260502202502 | 64 | 115 | 2.6 | 7.0 | 0.00 | 0.00 | 0.00 | 34 | 1022.1 |
| 20260502202001 | 64 | 254 | 4.3 | 6.1 | 0.00 | 0.00 | 0.00 | 33 | 1022.3 |
| 20260502201456 | 64 | 263 | 3.5 | 6.1 | 0.00 | 0.00 | 0.00 | 33 | 1022.1 |
| 20260502200953 | 64 | 156 | 3.5 | 11.3 | 0.00 | 0.00 | 0.00 | 32 | 1022.6 |
| 20260502200449 | 64 | 307 | 6.1 | 7.8 | 0.00 | 0.00 | 0.00 | 33 | 1022.4 |
| 20260502195947 | 64 | 273 | 6.1 | 7.8 | 0.00 | 0.00 | 0.00 | 33 | 1022.5 |
| 20260502195444 | 65 | 234 | 0.0 | 7.0 | 0.00 | 0.00 | 0.00 | 32 | 1022.4 |
| 20260502194940 | 66 | 134 | 2.6 | 5.2 | 0.00 | 0.00 | 0.00 | 32 | 1022.5 |
| 20260502194437 | 65 | 277 | 3.5 | 7.8 | 0.00 | 0.00 | 0.00 | 32 | 1022.6 |
| 20260502193933 | 64 | 171 | 3.5 | 7.8 | 0.00 | 0.00 | 0.00 | 33 | 1022.5 |
| 20260502193431 | 64 | 149 | 5.2 | 8.7 | 0.00 | 0.00 | 0.00 | 33 | 1022.5 |
| 20260502192926 | 64 | 164 | 2.6 | 11.3 | 0.00 | 0.00 | 0.00 | 32 | 1022.7 |
| 20260502192423 | 64 | 268 | 7.0 | 9.6 | 0.00 | 0.00 | 0.00 | 32 | 1022.7 |
| 20260502191920 | 65 | 234 | 6.1 | 12.2 | 0.00 | 0.00 | 0.00 | 32 | 1022.9 |
| 20260502191418 | 66 | 156 | 3.5 | 9.6 | 0.00 | 0.00 | 0.00 | 32 | 1022.7 |
| 20260502190915 | 66 | 241 | 7.0 | 11.3 | 0.00 | 0.00 | 0.00 | 31 | 1022.7 |
| 20260502190412 | 65 | 247 | 2.6 | 8.7 | 0.00 | 0.00 | 0.00 | 32 | 1022.9 |
| 20260502185908 | 66 | 253 | 5.2 | 9.6 | 0.00 | 0.00 | 0.00 | 30 | 1022.9 |
| 20260502185404 | 65 | 275 | 11.3 | 13.0 | 0.00 | 0.00 | 0.00 | 31 | 1022.9 |
| 20260502184901 | 64 | 288 | 1.7 | 12.2 | 0.00 | 0.00 | 0.00 | 31 | 1023.0 |
| 20260502184356 | 64 | 170 | 8.7 | 9.6 | 0.00 | 0.00 | 0.00 | 32 | 1023.0 |
| 20260502183853 | 63 | 132 | 3.5 | 8.7 | 0.00 | 0.00 | 0.00 | 32 | 1022.7 |
| 20260502183349 | 63 | 246 | 1.7 | 13.9 | 0.00 | 0.00 | 0.00 | 32 | 1022.7 |
| 20260502182844 | 63 | 152 | 7.8 | 7.8 | 0.00 | 0.00 | 0.00 | 32 | 1023.0 |
| 20260502182340 | 62 | 282 | 6.1 | 8.7 | 0.00 | 0.00 | 0.00 | 33 | 1023.1 |
| 20260502181837 | 62 | 6 | 2.6 | 9.6 | 0.00 | 0.00 | 0.00 | 33 | 1023.2 |
| 20260502181336 | 62 | 146 | 5.2 | 9.6 | 0.00 | 0.00 | 0.00 | 33 | 1023.1 |
| 20260502180833 | 62 | 132 | 3.5 | 8.7 | 0.00 | 0.00 | 0.00 | 34 | 1023.0 |
| 20260502180330 | 62 | 199 | 4.3 | 9.6 | 0.00 | 0.00 | 0.00 | 33 | 1023.1 |
| 20260502170249 | 60 | 248 | 0.0 | 5.2 | 0.00 | 0.00 | 0.00 | 36 | 1022.9 |
| 20260502164237 | 61 | 301 | 1.7 | 4.3 | 0.00 | 0.00 | 0.00 | 36 | 1022.9 |
| 20260502163732 | 61 | 167 | 0.0 | 5.2 | 0.00 | 0.00 | 0.00 | 36 | 1022.9 |
| 20260502163229 | 61 | 281 | 2.6 | 3.5 | 0.00 | 0.00 | 0.00 | 36 | 1023.0 |
| 20260502162726 | 61 | 264 | 1.7 | 6.1 | 0.00 | 0.00 | 0.00 | 35 | 1023.1 |
| 20260502162223 | 61 | 282 | 3.5 | 4.3 | 0.00 | 0.00 | 0.00 | 36 | 1023.0 |
| 20260502161720 | 61 | 166 | 2.6 | 9.6 | 0.00 | 0.00 | 0.00 | 36 | 1023.1 |
| 20260502161216 | 61 | 257 | 2.6 | 7.0 | 0.00 | 0.00 | 0.00 | 36 | 1022.7 |
| 20260502160715 | 61 | 284 | 4.3 | 7.0 | 0.00 | 0.00 | 0.00 | 36 | 1022.7 |
| 20260502160214 | 60 | 3 | 1.7 | 5.2 | 0.00 | 0.00 | 0.00 | 37 | 1022.9 |
| 20260502152127 | 56 | 272 | 2.6 | 6.1 | 0.00 | 0.00 | 0.00 | 41 | 1022.6 |
| 20260502151624 | 55 | 258 | 2.6 | 3.5 | 0.00 | 0.00 | 0.00 | 42 | 1022.5 |
| 20260502151121 | 55 | 268 | 2.6 | 6.1 | 0.00 | 0.00 | 0.00 | 42 | 1022.9 |
| 20260502150619 | 55 | 161 | 3.5 | 7.0 | 0.00 | 0.00 | 0.00 | 42 | 1022.7 |
| 20260502150114 | 55 | 339 | 1.7 | 6.1 | 0.00 | 0.00 | 0.00 | 42 | 1022.5 |
| 20260502130503 | 45 | 164 | 0.0 | 1.7 | 0.00 | 0.00 | 0.00 | 39 | 1021.9 |
| 20260502123446 | 45 | 147 | 0.9 | 2.6 | 0.00 | 0.00 | 0.00 | 35 | 1021.9 |
| 20260502122943 | 46 | 119 | 0.0 | 1.7 | 0.00 | 0.00 | 0.00 | 34 | 1021.9 |
| 20260502122439 | 47 | 184 | 0.9 | 1.7 | 0.00 | 0.00 | 0.00 | 33 | 1021.9 |
| 20260502121937 | 47 | 236 | 0.9 | 2.6 | 0.00 | 0.00 | 0.00 | 32 | 1021.9 |
| 20260502121434 | 47 | 232 | 0.0 | 3.5 | 0.00 | 0.00 | 0.00 | 32 | 1022.0 |
| 20260502120932 | 47 | 202 | 1.7 | 2.6 | 0.00 | 0.00 | 0.00 | 32 | 1021.8 |
| 20260502120428 | 47 | 195 | 0.0 | 1.7 | 0.00 | 0.00 | 0.00 | 32 | 1021.9 |
| 20260502115925 | 48 | 243 | 0.0 | 1.7 | 0.00 | 0.00 | 0.00 | 32 | 1021.9 |
| 20260502115422 | 49 | 54 | 0.9 | 2.6 | 0.00 | 0.00 | 0.00 | 32 | 1022.0 |
| 20260502114918 | 50 | 243 | 1.7 | 2.6 | 0.00 | 0.00 | 0.00 | 30 | 1021.9 |
| 20260502114415 | 51 | 241 | 2.6 | 2.6 | 0.00 | 0.00 | 0.00 | 29 | 1022.0 |
| 20260502113912 | 51 | 249 | 1.7 | 3.5 | 0.00 | 0.00 | 0.00 | 29 | 1021.9 |
| 20260502113410 | 51 | 55 | 0.0 | 4.3 | 0.00 | 0.00 | 0.00 | 28 | 1021.7 |
| 20260502112909 | 51 | 184 | 1.7 | 4.3 | 0.00 | 0.00 | 0.00 | 28 | 1022.0 |
| 20260502112405 | 51 | 146 | 2.6 | 3.5 | 0.00 | 0.00 | 0.00 | 28 | 1022.0 |
| 20260502111903 | 49 | 168 | 0.0 | 1.7 | 0.00 | 0.00 | 0.00 | 31 | 1022.3 |
| 20260502111400 | 47 | 190 | 0.0 | 1.7 | 0.00 | 0.00 | 0.00 | 33 | 1022.0 |
| 20260502110857 | 47 | 259 | 0.9 | 2.6 | 0.00 | 0.00 | 0.00 | 32 | 1022.0 |
| 20260502110355 | 47 | 140 | 0.0 | 2.6 | 0.00 | 0.00 | 0.00 | 33 | 1021.9 |
| 20260502105852 | 47 | 238 | 0.0 | 2.6 | 0.00 | 0.00 | 0.00 | 32 | 1022.0 |
| 20260502105349 | 46 | 208 | 1.7 | 3.5 | 0.00 | 0.00 | 0.00 | 33 | 1022.0 |
| 20260502104847 | 46 | 198 | 0.0 | 2.6 | 0.00 | 0.00 | 0.00 | 33 | 1022.3 |
| 20260502104344 | 46 | 235 | 0.0 | 3.5 | 0.00 | 0.00 | 0.00 | 33 | 1022.1 |
| 20260502103841 | 47 | 262 | 0.9 | 3.5 | 0.00 | 0.00 | 0.00 | 32 | 1022.0 |
| 20260502103339 | 47 | 145 | 0.0 | 2.6 | 0.00 | 0.00 | 0.00 | 33 | 1022.0 |
| 20260502102836 | 47 | 160 | 0.0 | 2.6 | 0.00 | 0.00 | 0.00 | 33 | 1022.0 |
| 20260502102332 | 48 | 152 | 0.9 | 2.6 | 0.00 | 0.00 | 0.00 | 32 | 1021.9 |
| 20260502101830 | 48 | 147 | 0.0 | 2.6 | 0.00 | 0.00 | 0.00 | 32 | 1021.9 |
| 20260502101328 | 49 | 203 | 0.9 | 2.6 | 0.00 | 0.00 | 0.00 | 31 | 1022.0 |
| 20260502100826 | 49 | 262 | 0.9 | 4.3 | 0.00 | 0.00 | 0.00 | 31 | 1022.0 |
| 20260502100325 | 49 | 180 | 1.7 | 2.6 | 0.00 | 0.00 | 0.00 | 31 | 1021.9 |
| 20260502091258 | 51 | 144 | 1.7 | 2.6 | 0.00 | 0.00 | 0.00 | 28 | 1022.3 |
| 20260502090756 | 52 | 162 | 0.9 | 4.3 | 0.00 | 0.00 | 0.00 | 28 | 1022.4 |
| 20260502090253 | 52 | 131 | 1.7 | 2.6 | 0.00 | 0.00 | 0.00 | 27 | 1022.5 |
| 20260502071153 | 53 | 154 | 3.5 | 4.3 | 0.00 | 0.00 | 0.00 | 26 | 1023.3 |
| 20260502070651 | 53 | 76 | 0.9 | 6.1 | 0.00 | 0.00 | 0.00 | 26 | 1023.5 |
| 20260502070149 | 54 | 118 | 1.7 | 5.2 | 0.00 | 0.00 | 0.00 | 26 | 1023.2 |
| 20260502065647 | 54 | 141 | 1.7 | 5.2 | 0.00 | 0.00 | 0.00 | 26 | 1023.3 |
| 20260502065144 | 54 | 166 | 2.6 | 6.1 | 0.00 | 0.00 | 0.00 | 25 | 1023.5 |
| 20260502064643 | 54 | 149 | 3.5 | 7.8 | 0.00 | 0.00 | 0.00 | 25 | 1023.5 |
| 20260502064140 | 54 | 166 | 3.5 | 7.0 | 0.00 | 0.00 | 0.00 | 25 | 1023.2 |
| 20260502063638 | 54 | 149 | 3.5 | 6.1 | 0.00 | 0.00 | 0.00 | 25 | 1023.2 |
| 20260502063135 | 55 | 142 | 3.5 | 7.8 | 0.00 | 0.00 | 0.00 | 25 | 1023.3 |
| 20260502062632 | 54 | 147 | 1.7 | 7.0 | 0.00 | 0.00 | 0.00 | 25 | 1023.3 |
| 20260502062130 | 54 | 160 | 3.5 | 4.3 | 0.00 | 0.00 | 0.00 | 25 | 1023.2 |
| 20260502061628 | 54 | 130 | 2.6 | 7.8 | 0.00 | 0.00 | 0.00 | 25 | 1023.5 |
| 20260502061125 | 54 | 129 | 1.7 | 4.3 | 0.00 | 0.00 | 0.00 | 25 | 1023.3 |
| 20260502060625 | 54 | 173 | 2.6 | 5.2 | 0.00 | 0.00 | 0.00 | 25 | 1023.3 |
| 20260502060122 | 54 | 119 | 1.7 | 4.3 | 0.00 | 0.00 | 0.00 | 25 | 1023.5 |
| 20260502055620 | 54 | 175 | 0.9 | 5.2 | 0.00 | 0.00 | 0.00 | 25 | 1023.6 |
| 20260502055118 | 55 | 207 | 0.0 | 7.0 | 0.00 | 0.00 | 0.00 | 24 | 1023.3 |
| 20260502054617 | 55 | 145 | 4.3 | 6.1 | 0.00 | 0.00 | 0.00 | 24 | 1023.3 |
| 20260502054113 | 55 | 180 | 1.7 | 7.0 | 0.00 | 0.00 | 0.00 | 24 | 1023.5 |
| 20260502053610 | 55 | 149 | 1.7 | 7.8 | 0.00 | 0.00 | 0.00 | 24 | 1023.6 |
| 20260502053108 | 54 | 150 | 3.5 | 6.1 | 0.00 | 0.00 | 0.00 | 24 | 1023.6 |
| 20260502052606 | 55 | 167 | 0.0 | 6.1 | 0.00 | 0.00 | 0.00 | 24 | 1023.5 |
| 20260502052104 | 55 | 133 | 2.6 | 5.2 | 0.00 | 0.00 | 0.00 | 24 | 1023.3 |
| 20260502051602 | 55 | 138 | 3.5 | 5.2 | 0.00 | 0.00 | 0.00 | 24 | 1023.6 |
| 20260502051059 | 55 | 145 | 1.7 | 2.6 | 0.00 | 0.00 | 0.00 | 24 | 1023.5 |